SCP
0 0 0 0 0 0 0 0 0 0 0 0 0 0 0 0 0 0 0 0 0 0 0 0 0 0 0
0 0 0 0 0 0 0 0 0 0 0 0 0 0 0 0 0 0 0 0 0 0 0 0 0 0 0
0 0 0 0 0 0 0 0 0 0 0 0 0 0 0 0 0 0 0 0 0 0 0 0 0 0 0
0 0 0 0 0 0 0 0 0 0 0 0 0 0 0 0 0 0 0 0 0 0 0 0 0 0 0
0 0 0 0 0 0 0 0 0 0 0 0 0 0 0 0 0 0 0 0 0 0 0 0 0 0 0
0 0 0 0 0 0 0 0 0 0 0 0 0 0 0 0 0 0 0 0 0 0 0 0 0 0 0
0 0 0 0 0 0 0 0 0 0 0 0 0 0 0 0 0 0 0 0 0 0 0 0 0 0 0
0 0 0 0 0 0 0 0 0 0 0 0 0 0 0 0 0 0 0 0 0 0 0 0 0 0 0
0 0 0 0 0 0 0 0 0 0 0 0 0 0 0 0 0 0 0 0 0 0 0 0 0 0 0
0 0 0 0 0 0 0 0 0 0 0 0 0 0 0 0 0 0 0 0 0 0 0 0 0 0 0
0 0 0 0 0 0 0 0 0 0 0 0 0 0 0 0 0 0 0 0 0 0 0 0 0 0 0
0 0 0 0 0 0 0 0 0 0 0 0 0 0 0 0 0 0 0 0 0 0 0 0 0 0 0
0 0 0 0 0 0 0 0 0 0 0 0 0 0 0 0 0 0 0 0 0 0 0 0 0 0 0
0 0 0 0 0 0 0 0 0 0 0 0 0 0 0 0 0 0 0 0 0 0 0 0 0 0 0
0 0 0 0 0 0 0 0 0 0 0 0 0 0 0 0 0 0 0 0 0 0 0 0 0 0 0
0 0 0 0 0 0 0 0 0 0 0 0 0 0 0 0 0 0 0 0 0 0 0 0 0 0 0
0 0 0 0 0 0 0 0 0 0 0 0 0 0 0 0 0 0 0 0 0 0 0 0 0 0 0
Wind_Speed_500mb
37 35 43 40 41 39 39 33 33 32 29 27 24 22 20 19 18 16 16 17 16 16 17 18 20 20 21
48 39 39 45 40 44 40 38 34 34 30 30 29 28 26 24 23 21 19 16 14 13 12 13 15 15 19
57 50 46 51 44 42 42 39 37 37 32 31 32 31 30 28 26 26 23 21 17 15 15 16 15 15 17
55 56 51 49 48 47 40 39 37 36 34 32 29 29 29 28 26 23 20 21 22 22 21 21 22 21 21
55 56 54 53 54 45 41 37 40 39 34 32 28 24 22 19 19 19 19 19 18 18 17 18 19 20 23
60 60 59 55 53 52 46 44 37 37 37 33 31 31 29 25 23 22 23 24 24 24 24 24 25 24 24
66 60 62 55 45 51 50 47 46 36 36 32 32 35 32 33 31 30 30 31 30 30 30 29 28 27 27
69 71 71 58 50 49 49 44 45 46 50 41 40 39 34 33 28 30 31 31 31 31 30 30 29 30 30
64 66 64 58 59 51 52 47 49 51 50 48 49 46 42 35 34 31 30 28 28 28 28 29 29 32 35
67 76 56 60 67 64 60 55 55 48 47 47 43 41 42 39 33 33 32 28 26 28 29 32 33 38 39
54 52 50 53 55 58 59 59 59 54 42 38 39 37 39 39 45 41 38 37 40 39 38 39 37 37 39
53 53 49 51 48 49 48 48 47 47 42 48 50 45 45 49 51 51 45 40 42 44 43 43 44 45 46
56 58 53 49 46 44 43 46 50 53 54 56 58 52 51 57 59 54 48 49 47 46 47 47 49 52 57
57 66 66 41 45 41 44 44 47 52 55 57 60 61 62 63 59 56 50 45 45 41 43 47 51 57 61
58 48 52 54 50 45 48 53 59 62 62 56 53 52 60 67 65 64 61 58 56 55 53 62 63 62 66
51 53 48 59 64 53 50 44 46 45 39 39 38 37 41 48 50 57 58 62 58 58 55 60 67 64 67
51 43 45 48 48 49 51 46 42 40 39 38 42 44 48 57 52 42 42 41 42 45 47 55 66 67 61
Wind_Direction_500mb
268 271 275 275 282 282 288 285 282 279 271 266 256 251 248 251 253 249 250 248 243 239 238 244 246 243 231
279 269 269 276 275 278 282 282 280 273 273 268 266 261 252 243 236 239 241 239 241 240 238 237 238 242 234
277 277 270 277 279 279 282 279 275 276 270 263 259 257 257 254 254 257 257 250 249 256 256 255 260 254 251
272 276 274 273 277 279 275 278 278 267 269 267 263 258 254 255 258 259 255 254 256 266 269 265 260 259 255
268 272 273 271 271 276 274 269 263 270 268 264 260 249 237 237 247 252 257 263 268 271 272 272 269 265 263
269 267 270 272 274 269 259 262 263 269 266 259 251 248 246 253 258 257 254 258 262 266 269 270 270 271 271
261 262 268 270 261 263 262 254 254 250 259 248 244 256 252 257 260 258 262 265 265 266 268 269 270 271 273
264 264 261 261 257 257 261 255 250 241 250 251 248 255 256 257 257 260 262 264 268 271 272 273 274 276 277
264 266 267 264 248 245 242 237 244 245 248 256 257 260 260 258 266 259 263 257 260 263 267 272 274 278 280
263 258 259 259 255 247 250 249 248 250 253 250 254 259 272 263 254 263 264 265 263 264 260 263 272 277 277
269 264 264 258 253 249 247 244 248 251 248 249 253 249 247 258 269 267 264 264 271 273 273 280 284 284 284
275 271 259 256 256 253 252 248 246 251 251 250 254 251 253 262 267 272 270 265 267 268 269 273 278 285 286
273 271 258 253 258 257 253 251 248 247 247 245 252 256 257 261 267 266 267 269 269 267 267 269 273 274 278
279 275 280 272 243 253 262 263 258 257 253 251 252 256 258 258 258 259 261 258 265 262 263 264 269 273 276
271 282 277 272 257 265 262 259 259 260 262 263 257 253 252 252 250 254 257 261 263 266 263 267 272 279 282
271 270 276 266 257 249 255 256 259 258 256 254 257 258 262 261 254 256 260 262 265 262 261 270 277 277 282
269 266 272 268 256 262 262 243 251 259 263 254 246 250 251 257 261 268 265 266 269 258 259 266 277 282 283
Wind_Speed_850mb
37 35 43 40 41 39 39 33 33 32 29 27 24 22 20 19 18 16 16 17 16 16 17 18 20 20 21
48 39 39 45 40 44 40 38 34 34 30 30 29 28 26 24 23 21 19 16 14 13 12 13 15 15 19
57 50 46 51 44 42 42 39 37 37 32 31 32 31 30 28 26 26 23 21 17 15 15 16 15 15 17
55 56 51 49 48 47 40 39 37 36 34 32 29 29 29 28 26 23 20 21 22 22 21 21 22 21 21
55 56 54 53 54 45 41 37 40 39 34 32 28 24 22 19 19 19 19 19 18 18 17 18 19 20 23
60 60 59 55 53 52 46 44 37 37 37 33 31 31 29 25 23 22 23 24 24 24 24 24 25 24 24
66 60 62 55 45 51 50 47 46 36 36 32 32 35 32 33 31 30 30 31 30 30 30 29 28 27 27
69 71 71 58 50 49 49 44 45 46 50 41 40 39 34 33 28 30 31 31 31 31 30 30 29 30 30
64 66 64 58 59 51 52 47 49 51 50 48 49 46 42 35 34 31 30 28 28 28 28 29 29 32 35
67 76 56 60 67 64 60 55 55 48 47 47 43 41 42 39 33 33 32 28 26 28 29 32 33 38 39
54 52 50 53 55 58 59 59 59 54 42 38 39 37 39 39 45 41 38 37 40 39 38 39 37 37 39
53 53 49 51 48 49 48 48 47 47 42 48 50 45 45 49 51 51 45 40 42 44 43 43 44 45 46
56 58 53 49 46 44 43 46 50 53 54 56 58 52 51 57 59 54 48 49 47 46 47 47 49 52 57
57 66 66 41 45 41 44 44 47 52 55 57 60 61 62 63 59 56 50 45 45 41 43 47 51 57 61
58 48 52 54 50 45 48 53 59 62 62 56 53 52 60 67 65 64 61 58 56 55 53 62 63 62 66
51 53 48 59 64 53 50 44 46 45 39 39 38 37 41 48 50 57 58 62 58 58 55 60 67 64 67
51 43 45 48 48 49 51 46 42 40 39 38 42 44 48 57 52 42 42 41 42 45 47 55 66 67 61
Wind_Direction_850mb
268 271 275 275 282 282 288 285 282 279 271 266 256 251 248 251 253 249 250 248 243 239 238 244 246 243 231
279 269 269 276 275 278 282 282 280 273 273 268 266 261 252 243 236 239 241 239 241 240 238 237 238 242 234
277 277 270 277 279 279 282 279 275 276 270 263 259 257 257 254 254 257 257 250 249 256 256 255 260 254 251
272 276 274 273 277 279 275 278 278 267 269 267 263 258 254 255 258 259 255 254 256 266 269 265 260 259 255
268 272 273 271 271 276 274 269 263 270 268 264 260 249 237 237 247 252 257 263 268 271 272 272 269 265 263
269 267 270 272 274 269 259 262 263 269 266 259 251 248 246 253 258 257 254 258 262 266 269 270 270 271 271
261 262 268 270 261 263 262 254 254 250 259 248 244 256 252 257 260 258 262 265 265 266 268 269 270 271 273
264 264 261 261 257 257 261 255 250 241 250 251 248 255 256 257 257 260 262 264 268 271 272 273 274 276 277
264 266 267 264 248 245 242 237 244 245 248 256 257 260 260 258 266 259 263 257 260 263 267 272 274 278 280
263 258 259 259 255 247 250 249 248 250 253 250 254 259 272 263 254 263 264 265 263 264 260 263 272 277 277
269 264 264 258 253 249 247 244 248 251 248 249 253 249 247 258 269 267 264 264 271 273 273 280 284 284 284
275 271 259 256 256 253 252 248 246 251 251 250 254 251 253 262 267 272 270 265 267 268 269 273 278 285 286
273 271 258 253 258 257 253 251 248 247 247 245 252 256 257 261 267 266 267 269 269 267 267 269 273 274 278
279 275 280 272 243 253 262 263 258 257 253 251 252 256 258 258 258 259 261 258 265 262 263 264 269 273 276
271 282 277 272 257 265 262 259 259 260 262 263 257 253 252 252 250 254 257 261 263 266 263 267 272 279 282
271 270 276 266 257 249 255 256 259 258 256 254 257 258 262 261 254 256 260 262 265 262 261 270 277 277 282
269 266 272 268 256 262 262 243 251 259 263 254 246 250 251 257 261 268 265 266 269 258 259 266 277 282 283